Stations météo

réclame
Mon MeteoGroup
Skillinge, Suède (2625): Température de l'air & dewpoint: 08.08.2018 23:00:00 - 14.08.2018 23:00:00 (CEST)Skillinge, Suède (2625): Vitesse du vent & gusts: 08.08.2018 23:00:00 - 14.08.2018 23:00:00 (CEST)Skillinge, Suède (2625): Direction du vent: 08.08.2018 23:00:00 - 14.08.2018 23:00:00 (CEST)Skillinge, Suède (2625): reduced air pressure: 08.08.2018 23:00:00 - 14.08.2018 23:00:00 (CEST)Skillinge, Suède (2625): visibility: 08.08.2018 23:00:00 - 14.08.2018 23:00:00 (CEST)Skillinge, Suède (2625): Quantités de précipitations: 08.08.2018 23:00:00 - 14.08.2018 23:00:00 (CEST)
Date & Time tt [°C] td [°C] ff [km/h] ff [knt] fx [km/h] fx [knt] dd ppp [hPa] vv [km] rr [mm]
14.08.2018 23:00:00 17,1 15,1 9 5 19 10 W 1008,2 50 0,0
14.08.2018 22:00:00 17,7 15,7 5 3 13 7 W 1007,9 50 0,0
14.08.2018 21:00:00 18,4 17,1 4 2 33 18 W 1007,5 14 3,9
14.08.2018 20:00:00 19,9 16,7 10 5 39 21 W 1006,9 11 0,0
14.08.2018 19:00:00 21,0 16,8 16 9 39 21 WSW 1006,2 17 0,0
14.08.2018 18:00:00 20,8 16,6 22 12 36 19 WSW 1006,0 26 0,0
14.08.2018 17:00:00 22,1 15,9 22 12 36 20 WSW 1006,0 28 0,0
14.08.2018 16:00:00 20,7 15,7 24 13 39 21 SW 1005,9 20 0,0
14.08.2018 15:00:00 18,6 16,0 20 11 39 21 SSW 1006,0 11 0,0
14.08.2018 14:00:00 20,5 15,7 23 12 37 20 SW 1006,0 14 0,0
14.08.2018 13:00:00 21,4 16,1 23 13 37 20 SW 1005,8 14 0,0
14.08.2018 12:00:00 22,0 15,8 21 12 36 19 WSW 1005,4 32 0,0
14.08.2018 11:00:00 22,0 15,4 22 12 36 19 WSW 1005,3 39 0,0
14.08.2018 10:00:00 21,5 16,0 23 12 36 19 WSW 1005,1 31 0,0
14.08.2018 09:00:00 20,6 17,4 16 9 24 13 WSW 1005,0 29 0,0
14.08.2018 08:00:00 18,4 16,9 9 5 13 7 SW 1004,6 18 0,0
14.08.2018 07:00:00 18,9 17,0 2 1 16 9 S 1004,5 14 0,0
14.08.2018 06:00:00 18,4 16,6 0 0 27 14 N 1004,5 19 0,0
14.08.2018 05:00:00 18,9 16,7 15 8 34 18 ESE 1004,8 14 0,0
14.08.2018 04:00:00 19,0 16,8 22 12 37 20 ESE 1005,2 23 0,0
14.08.2018 03:00:00 19,1 16,3 23 12 37 20 E 1005,7 30 0,0
14.08.2018 02:00:00 19,1 16,1 29 16 36 20 E 1006,0 38 0,0
14.08.2018 01:00:00 18,9 15,9 28 15 36 20 E 1006,8 42 0,0
14.08.2018 00:00:00 18,6 16,0 29 16 36 19 E 1007,1 32 0,0
13.08.2018 23:00:00 18,5 16,3 24 13 34 18 E 1008,0 38 0,0
13.08.2018 22:00:00 18,3 15,9 25 14 35 19 E 1008,6 39 0,0
13.08.2018 21:00:00 18,1 16,1 28 15 35 19 E 1007,9 35 0,0
13.08.2018 20:00:00 17,8 15,6 28 15 33 18 E 1007,8 40 0,0
13.08.2018 19:00:00 17,8 16,0 22 12 27 14 E 1008,1 26 0,0
13.08.2018 18:00:00 16,7 15,4 13 7 24 13 ENE 1008,9 15 0,0
13.08.2018 17:00:00 16,9 15,6 18 10 24 13 NE 1009,0 10 0,0
13.08.2018 16:00:00 16,8 15,2 17 9 18 10 NE 1009,1 10 0,0
13.08.2018 15:00:00 16,7 14,9 12 7 14 8 NE 1009,7 12 0,0
13.08.2018 14:00:00 17,6 15,6 6 3 8 4 NE 1009,8 12 0,0
13.08.2018 13:00:00 18,1 15,9 4 2 7 4 SE 1009,7 18 0,0
13.08.2018 12:00:00 17,7 15,9 4 2 9 5 SSW 1010,0 14 0,0
13.08.2018 11:00:00 17,0 16,2 5 3 9 5 SSW 1009,9 11 0,0
13.08.2018 10:00:00 16,7 15,9 4 2 9 5 SSW 1009,7 23 0,0
13.08.2018 09:00:00 16,4 15,9 3 2 10 6 S 1009,7 13 0,1
13.08.2018 08:00:00 15,5 15,2 3 2 27 15 NE 1009,7 18 0,7
13.08.2018 07:00:00 14,8 14,6 5 3 28 15 NNE 1009,6 11 0,5
13.08.2018 06:00:00 12,6 12,4 21 12 28 15 E 1009,4 0,7 2,2
13.08.2018 05:00:00 12,4 11,9 11 6 20 11 NE 1010,3 3,6 2,1
13.08.2018 04:00:00 12,9 12,6 10 5 15 8 NNE 1010,6 8 1,8
13.08.2018 03:00:00 12,2 11,9 5 3 6 4 ENE 1011,1 7 1,9
13.08.2018 02:00:00 11,5 11,0 0 0 6 3 N 1011,6 3,7 1,4
13.08.2018 01:00:00 11,7 11,2 0 0 6 3 N 1012,1 10 1,1
13.08.2018 00:00:00 11,8 11,0 4 2 6 3 S 1012,3 10 1,0
12.08.2018 23:00:00 12,4 11,1 0 0 6 3 N 1012,5 14 1,6
12.08.2018 22:00:00 13,0 11,6 0 0 12 7 N 1012,9 12 1,0
12.08.2018 21:00:00 13,5 11,6 3 1 16 8 W 1013,2 16 0,6
12.08.2018 20:00:00 14,6 11,7 8 4 28 15 WSW 1013,4 21 0,2
12.08.2018 19:00:00 15,9 11,7 9 5 39 21 W 1013,3 46 0,0
12.08.2018 18:00:00 17,9 7,0 20 11 39 21 WSW 1013,4 50 0,0
12.08.2018 17:00:00 19,4 11,9 17 9 44 24 W 1013,4 48 0,0
12.08.2018 16:00:00 18,1 10,9 18 10 44 24 WSW 1013,7 50 0,0
12.08.2018 15:00:00 18,0 10,1 19 10 48 26 WSW 1013,8 50 0,0
12.08.2018 14:00:00 19,2 11,5 31 17 48 26 SW 1013,9 47 0,0
12.08.2018 13:00:00 20,3 9,2 29 15 43 23 WSW 1013,9 40 0,0
12.08.2018 12:00:00 20,7 8,7 20 11 39 21 WSW 1014,2 46 0,0
12.08.2018 11:00:00 17,9 10,3 24 13 44 24 WSW 1014,3 40 0,0
12.08.2018 10:00:00 17,2 10,1 21 11 44 24 W 1014,2 50 0,0
12.08.2018 09:00:00 16,1 11,1 17 9 36 19 WSW 1014,2 43 0,0
12.08.2018 08:00:00 15,7 10,5 19 10 32 17 W 1014,0 43 0,0
12.08.2018 07:00:00 14,3 9,7 15 8 27 14 WSW 1013,9 45 0,0
12.08.2018 06:00:00 12,8 9,2 12 6 26 14 WSW 1013,4 49 0,0
12.08.2018 05:00:00 12,6 9,4 13 7 29 15 W 1013,2 45 0,0
12.08.2018 04:00:00 13,0 9,4 14 8 29 15 W 1013,2 49 0,0
12.08.2018 03:00:00 13,1 9,9 13 7 30 16 W 1013,1 50 0,0
12.08.2018 02:00:00 13,6 10,0 15 8 36 19 W 1012,7 50 0,0
12.08.2018 01:00:00 14,1 10,7 18 10 36 19 W 1012,7 50 0,0
12.08.2018 00:00:00 13,9 11,4 18 10 32 17 WSW 1012,6 50 0,0
11.08.2018 23:00:00 13,2 11,4 15 8 29 16 W 1012,3 50 0,2
11.08.2018 22:00:00 13,4 11,5 13 7 22 12 W 1011,9 50 0,0
11.08.2018 21:00:00 13,5 11,7 8 5 34 19 WNW 1011,1 50 4,9
11.08.2018 20:00:00 13,9 11,9 4 2 51 27 WSW 1011,0 3,7 2,0
11.08.2018 19:00:00 15,6 11,4 23 12 61 33 SW 1011,8 46 0,4
11.08.2018 18:00:00 17,4 10,0 31 17 61 33 SW 1012,6 45 0,0
11.08.2018 17:00:00 18,7 10,3 40 22 59 32 WSW 1013,0 31 0,0
11.08.2018 16:00:00 18,5 10,1 34 18 53 28 SW 1013,6 50 0,0
11.08.2018 15:00:00 20,2 10,9 25 14 53 29 WSW 1014,0 47 0,0
11.08.2018 14:00:00 20,4 11,1 33 18 49 27 SW 1014,5 49 0,0
11.08.2018 13:00:00 21,8 11,5 27 15 49 27 SW 1014,6 37 0,0
11.08.2018 12:00:00 21,3 11,6 25 13 38 21 SSW 1014,7 34 0,0
11.08.2018 11:00:00 22,1 15,2 27 15 38 20 S 1015,3 39 0,0
11.08.2018 10:00:00 21,2 14,1 23 13 37 20 S 1016,0 42 0,0
11.08.2018 09:00:00 20,0 13,0 27 14 37 20 S 1016,6 38 0,0
11.08.2018 08:00:00 19,9 13,6 20 11 26 14 S 1017,1 50 0,0
11.08.2018 07:00:00 19,3 13,5 17 9 22 12 S 1017,4 46 0,0
11.08.2018 06:00:00 17,8 15,1 8 4 17 9 S 1017,9 50 0,0
11.08.2018 05:00:00 16,2 12,9 7 4 13 7 SW 1018,5 50 0,0
11.08.2018 04:00:00 16,3 11,0 7 4 14 7 WSW 1019,0 50 0,0
11.08.2018 03:00:00 14,9 10,3 8 4 14 7 WSW 1019,4 50 0,0
11.08.2018 02:00:00 15,2 10,6 8 5 14 7 WSW 1019,7 50 0,0
11.08.2018 01:00:00 15,6 11,2 8 4 12 6 SW 1020,0 50 0,0
11.08.2018 00:00:00 14,3 10,1 5 3 16 8 WSW 1020,2 50 0,0
10.08.2018 23:00:00 15,3 9,6 6 3 23 12 WSW 1020,1 50 0,0
10.08.2018 22:00:00 16,9 9,1 10 6 36 19 WSW 1020,1 50 0,0
10.08.2018 21:00:00 18,0 8,6 14 8 48 26 WSW 1019,4 50 0,0
10.08.2018 20:00:00 19,4 10,1 23 13 54 29 WSW 1018,8 50 0,0
10.08.2018 19:00:00 20,5 10,6 30 16 54 29 WSW 1018,6 47 0,0
10.08.2018 18:00:00 21,6 10,7 26 14 53 29 WSW 1018,2 46 0,0
10.08.2018 17:00:00 22,0 10,5 29 16 54 29 WSW 1017,8 40 0,0
10.08.2018 16:00:00 22,1 11,5 35 19 61 33 WSW 1017,4 36 0,0
10.08.2018 15:00:00 21,7 12,3 37 20 61 33 WSW 1016,7 39 0,0
10.08.2018 14:00:00 21,6 11,9 39 21 61 33 WSW 1016,1 36 0,0
10.08.2018 13:00:00 21,3 12,7 37 20 55 30 WSW 1015,2 35 0,0
10.08.2018 12:00:00 21,3 14,9 32 17 58 32 WSW 1014,4 44 0,0
10.08.2018 11:00:00 21,3 14,2 40 22 66 36 WSW 1013,4 38 0,0
10.08.2018 10:00:00 23,1 13,8 33 18 66 36 WSW 1012,4 44 0,0
10.08.2018 09:00:00 21,8 14,7 41 22 63 34 WSW 1011,4 35 0,0
10.08.2018 08:00:00 21,4 15,2 38 21 61 33 WSW 1010,6 37 0,0
10.08.2018 07:00:00 21,1 16,5 29 16 46 25 WSW 1009,8 33 0,0
10.08.2018 06:00:00 21,2 18,6 23 12 39 21 SW 1008,8 30 0,0
10.08.2018 05:00:00 21,1 19,7 22 12 27 15 SSW 1008,6 21 0,0
10.08.2018 04:00:00 20,4 19,6 3 2 10 6 S 1008,7 3,8 0,0
10.08.2018 03:00:00 20,0 19,3 6 3 87 47 SSW 1008,3 21 0,0
10.08.2018 02:00:00 19,9 19,4 5 3 87 47 WNW 1008,2 29 5,1
10.08.2018 01:00:00 22,6 20,5 31 17 42 23 ESE 1007,4 13 0,0
10.08.2018 00:00:00 22,4 19,8 29 16 42 23 E 1008,7 16 0,0
09.08.2018 23:00:00 22,4 19,2 29 15 38 20 E 1010,1 18 0,0
09.08.2018 22:00:00 22,3 19,1 22 12 28 15 E 1011,2 22 0,0
09.08.2018 21:00:00 22,1 18,9 19 10 27 14 E 1012,0 27 0,0
09.08.2018 20:00:00 22,4 18,0 19 10 24 13 E 1012,7 46 0,0
09.08.2018 19:00:00 22,8 18,6 13 7 16 9 ESE 1013,6 24 0,0
09.08.2018 18:00:00 23,6 14,9 5 3 21 11 S 1014,3 46 0,0
09.08.2018 17:00:00 24,0 17,3 10 6 23 13 SSW 1014,7 38 0,0
09.08.2018 16:00:00 23,9 17,2 16 9 27 15 S 1015,3 36 0,0
09.08.2018 15:00:00 24,3 17,3 20 11 27 15 SSW 1015,8 32 0,0
09.08.2018 14:00:00 24,3 17,8 18 10 26 14 S 1015,8 37 0,0
09.08.2018 13:00:00 25,0 18,0 18 10 26 14 SSW 1015,9 28 0,0
09.08.2018 12:00:00 24,0 18,0 16 9 23 12 S 1016,3 18 0,0
09.08.2018 11:00:00 23,9 17,6 11 6 15 8 S 1016,5 26 0,0
09.08.2018 10:00:00 24,0 15,8 6 3 13 7 S 1016,1 30 0,0
09.08.2018 09:00:00 22,8 16,6 5 3 13 7 W 1016,1 25 0,0
09.08.2018 08:00:00 21,7 17,5 6 3 13 7 W 1015,8 17 0,0
09.08.2018 07:00:00 19,2 17,7 4 2 6 3 W 1015,7 10 0,0
09.08.2018 06:00:00 18,5 17,2 3 1 13 7 WSW 1014,7 10 0,0
09.08.2018 05:00:00 20,1 17,7 2 1 16 9 E 1014,0 12 0,0
09.08.2018 04:00:00 20,9 17,7 9 5 18 10 WNW 1013,2 16 0,0
09.08.2018 03:00:00 21,7 17,5 7 4 18 10 WNW 1013,0 24 0,0
09.08.2018 02:00:00 22,7 17,6 9 5 18 10 WNW 1012,6 26 0,0
09.08.2018 01:00:00 22,8 18,6 8 4 29 16 WNW 1011,8 19 0,0
09.08.2018 00:00:00 22,4 18,0 8 4 44 24 W 1011,7 29 0,1
08.08.2018 23:00:00 25,8 14,3 21 12 44 24 SW 1011,2 50 0,0

tt = Température de l'air
td = dewpoint
ff = Vitesse du vent
fx = gusts
dd = Direction du vent
ppp = reduced air pressure
vv = visibility
rr = Quantités de précipitations

stations d'obs. à proximité